www.pogodaiklimat.ru

Погода и климат >> Архив погоды >> Швейцария >> Интерлакен


ПОГОДА в Интерлакене

  • Прогноз погоды в Интерлакене
  • Монитор погоды в Интерлакене

АРХИВ ПОГОДЫ в Интерлакене

Время (UTC), дата Ветер
(напр.,м/с)
 
Видим.   Явления Облачность Т
(С)
Тd
(С)
f
(%)
Тe
(С)
Тes
(С)
Комфортность P
(гПа)
Po
(гПа)
Тmin
(С)
Tmax
(С)
R
(мм)
R24
(мм)
S
(см)
13 15.08 ЮЗ 5
{11}
н/о н/о +23.6 +11.5 47 +25 +25 комфорт 1013.6 949.1
14 15.08 ЮЗ 5
{9}
н/о н/о +23.4 +11.1 46 +26 +26 жарко 1013.8 949.2
15 15.08 ЮЗ 2
{11}
н/о н/о +23.2 +10.5 45 +25 +25 комфорт 1013.6 949.0
16 15.08 ЮЗ 4
{9}
н/о н/о +22.4 +11.2 49 +25 +25 комфорт 1014.2 949.4
17 15.08 ЮЗ 6
{11}
н/о н/о +20.5 +12.3 59 +22 +22 комфорт 1015.5 950.2 0.1
18 15.08 ЮЗ 3
{11}
н/о н/о +19.4 +12.5 64 +21 +21 комфорт 1016.9 951.2 +24.3 0.1
19 15.08 ЮЗ 3
{8}
н/о н/о +18.6 +11.5 63 +19 +19 1018.0 952.1 0.1
20 15.08 ЮЗ 3
{8}
н/о н/о +19.0 +9.2 53 +20 +20 1018.6 952.7
21 15.08 СВ 1
{8}
н/о н/о +17.1 +12.7 75 +18 +18 1019.6 953.2
22 15.08 В 1
{3}
н/о н/о +17.4 +11.5 68 +18 +18 1020.0 953.7
23 15.08 ЮЗ 2
{2}
н/о н/о +16.2 +11.5 74 +17 +17 1020.3 953.7
00 16.08 ЮЗ 1
{8}
н/о н/о +16.2 +11.1 72 +17 +17 1020.4 953.8
01 16.08 З 2
{4}
н/о н/о +17.1 +10.2 64 +17 +17 1020.2 953.8
02 16.08 ЮЗ 1
{3}
н/о н/о +16.3 +10.4 68 +18 +18 1020.3 953.7
03 16.08 ЮЗ 3
{5}
н/о н/о +14.2 +11.2 82 +13 +13 1020.5 953.4
04 16.08 З 2
{5}
н/о н/о +13.7 +10.7 82 +13 +13 1021.1 953.8
05 16.08 В 1
{3}
н/о н/о +12.1 +10.0 87 +12 +12 1020.6 953.0
06 16.08 ЮЗ 2
{5}
н/о н/о +12.9 +10.3 84 +12 +12 1020.8 953.4 +12.1
07 16.08 Ю 2
{3}
н/о н/о +15.2 +10.9 75 +15 +15 1020.7 953.8
08 16.08 ЮВ 2
{3}
н/о н/о +17.2 +10.7 66 +18 +18 1020.0 953.6
09 16.08 С 1
{3}
н/о н/о +19.0 +11.0 60 +21 +21 комфорт 1019.1 953.2
10 16.08 СЗ 1
{4}
н/о н/о +20.0 +11.0 56 +23 +23 комфорт 1018.2 952.6
11 16.08 СВ 3
{4}
н/о н/о +20.9 +9.0 46 +23 +23 комфорт 1016.9 951.6
12 16.08 СВ 2
{4}
н/о н/о +22.0 +7.6 39 +23 +23 комфорт 1016.1 951.1
13 16.08 СЗ 2
{5}
н/о н/о +22.2 +9.4 44 +24 +24 комфорт 1015.5 950.5
14 16.08 З 3
{6}
н/о н/о +22.5 +10.5 47 +24 +24 комфорт 1015.0 950.1
15 16.08 З 6
{8}
н/о н/о +23.6 +9.8 42 +25 +25 комфорт 1014.7 950.1
16 16.08 З 4
{9}
н/о н/о +23.7 +9.7 41 +25 +25 комфорт 1014.2 949.7
17 16.08 З 4
{8}
н/о н/о +23.0 +9.8 43 +25 +25 комфорт 1014.1 949.4
18 16.08 ЮЗ 2
{9}
н/о н/о +20.6 +12.0 58 +23 +23 комфорт 1014.8 949.5 +23.7
19 16.08 ЮЗ 2
{4}
н/о н/о +18.0 +12.6 71 +19 +19 1015.8 949.9
20 16.08 Ю 3
{4}
н/о н/о +16.8 +12.6 76 +17 +17 1016.6 950.3
21 16.08 Ю 2
{4}
н/о н/о +16.0 +12.3 79 +16 +16 1017.3 950.8
22 16.08 ЮВ 2
{3}
н/о н/о +15.4 +11.9 80 +16 +16 1017.2 950.6
23 16.08 ЮЗ 2
{2}
н/о н/о +15.3 +11.9 80 +15 +15 1017.0 950.4
00 17.08 В 1
{4}
н/о н/о +14.1 +11.2 83 +14 +14 1017.2 950.3
01 17.08 ЮЗ 1
{2}
н/о н/о +13.9 +11.5 85 +14 +14 1017.1 950.1
02 17.08 З 1
{2}
н/о н/о +13.4 +11.2 87 +14 +14 1017.0 949.9
03 17.08 СВ 1
{2}
н/о н/о +12.5 +10.2 86 +12 +12 1017.1 949.8
04 17.08 ЮЗ 1
{2}
н/о н/о +13.0 +10.6 85 +14 +14 1017.0 949.8
05 17.08 ЮЗ 1
{2}
н/о н/о +13.3 +10.1 81 +13 +13 1017.0 949.9
06 17.08 З 1
{2}
н/о н/о +13.9 +11.0 83 +15 +15 1016.7 949.8 +12.3
07 17.08 В 1
{2}
н/о н/о +15.6 +11.2 75 +17 +17 1016.2 949.7
08 17.08 В 1
{3}
н/о н/о +18.1 +12.1 68 +19 +19 1015.1 949.2
09 17.08 В 1
{3}
н/о н/о +19.4 +11.2 59 +22 +22 комфорт 1015.0 949.4
10 17.08 СВ 2
{4}
н/о н/о +20.5 +12.1 59 +23 +23 комфорт 1014.9 949.6
11 17.08 В 1
{3}
н/о н/о +21.0 +11.9 56 +25 +25 комфорт 1014.5 949.3
12 17.08 СВ 1
{5}
н/о н/о +21.6 +11.0 51 +23 +23 комфорт 1013.9 948.9
13 17.08 З 1
{2}
н/о н/о +23.3 +12.1 49 +26 +26 жарко 1012.8 948.3
14 17.08 СВ 2
{3}
н/о н/о +22.7 +11.5 49 +25 +25 комфорт 1012.3 947.7
15 17.08 В 1
{4}
н/о н/о +24.1 +10.7 43 +25 +25 комфорт 1011.9 947.6
16 17.08 СВ 2
{3}
н/о н/о +22.7 +12.0 51 +25 +25 комфорт 1012.1 947.5
17 17.08 СВ 2
{3}
н/о н/о +21.7 +12.5 56 +24 +24 комфорт 1012.5 947.6
18 17.08 В 1
{4}
н/о н/о +20.9 +15.0 69 +25 +25 комфорт 1012.7 947.6 +24.2
19 17.08 ЮЗ 1
{2}
н/о н/о +20.1 +14.9 72 +24 +24 комфорт 1013.0 947.7
20 17.08 СЗ 1
{3}
н/о н/о +19.6 +14.5 72 +22 +22 комфорт 1013.2 947.8
21 17.08 З 1
{3}
н/о н/о +18.8 +13.8 73 +21 +21 комфорт 1013.2 947.6
22 17.08 С 1
{2}
н/о н/о +18.3 +13.4 73 +20 +20 1013.4 947.7
23 17.08 СВ 2
{2}
н/о н/о +17.8 +13.6 76 +19 +19 1013.5 947.7
00 18.08 В 1
{3}
н/о н/о +17.7 +13.8 78 +19 +19 1013.3 947.5
01 18.08 ЮЗ 1
{2}
н/о н/о +16.8 +13.1 79 +18 +18 1013.2 947.2
02 18.08 Ю 1
{3}
н/о н/о +15.8 +12.3 80 +17 +17 1013.3 947.0
03 18.08 В 1
{3}
н/о н/о +15.3 +11.7 79 +17 +17 1013.0 946.6
04 18.08 Ю 1
{2}
н/о н/о +14.7 +11.6 82 +15 +15 1013.2 946.7
05 18.08 ЮЗ 1
{2}
н/о н/о +14.4 +11.6 83 +15 +15 1013.4 946.8
06 18.08 В 1
{4}
н/о н/о +14.8 +11.4 80 +16 +16 1013.4 946.9 +14.1
07 18.08 В 1
{3}
н/о н/о +17.4 +12.9 75 +18 +18 1012.3 946.5
08 18.08 СВ 2
{3}
н/о н/о +20.0 +13.5 66 +23 +23 комфорт 1011.2 946.0
09 18.08 СВ 1
{4}
н/о н/о +22.4 +13.7 58 +26 +26 жарко 1010.0 945.4
10 18.08 СВ 3
{4}
н/о н/о +24.1 +12.3 48 +26 +26 жарко 1009.0 944.9
11 18.08 СЗ 4
{7}
н/о н/о +26.3 +13.2 44 +28 +28 жарко 1008.5 944.9
12 18.08 З 4
{9}
н/о н/о +28.3 +12.8 38 +30 +30 жарко 1007.7 944.6
13 18.08 СЗ 3
{7}
н/о н/о +28.7 +13.8 40 +31 +31 жарко 1007.4 944.4
14 18.08 СВ 2
{7}
н/о н/о +30.2 +15.8 42 +33 +33 душно 1007.0 944.3
15 18.08 СЗ 4
{10}
н/о н/о +30.3 +14.8 39 +32 +32 жарко 1006.9 944.3
16 18.08 З 3
{8}
н/о н/о +30.0 +15.1 40 +32 +32 жарко 1007.0 944.3
17 18.08 СВ 3
{6}
н/о н/о +28.4 +16.0 47 +32 +32 душно 1007.6 944.5
18 18.08 Ю 2
{10}
н/о н/о +25.9 +16.3 55 +29 +29 душно 1008.3 944.6 +30.9
19 18.08 Ю 3
{6}
н/о н/о +23.6 +16.5 64 +27 +27 жарко 1009.1 944.9
20 18.08 ЮЗ 2
{5}
н/о н/о +21.9 +16.3 71 +26 +26 душно 1010.3 945.6
21 18.08 ЮЗ 2
{6}
н/о н/о +22.0 +16.0 69 +26 +26 душно 1010.7 946.0
22 18.08 ЮЗ 8
{15}
н/о н/о +24.6 +13.3 49 +27 +27 жарко 1012.6 948.4
23 18.08 СВ 2
{12}
н/о н/о +17.6 +15.5 87 +18 +18 1017.6 951.5 7
00 19.08 ЮЗ 2
{15}
н/о н/о +17.2 +16.3 94 +17 +17 1018.1 951.8 6
01 19.08 В 2
{6}
н/о н/о +17.0 +16.3 96 +17 +17 1017.4 951.1 4
02 19.08 СВ 3
{5}
н/о н/о +16.8 +16.2 96 +17 +17 1016.9 950.6 1
03 19.08 Ю 1
{6}
н/о н/о +16.9 +16.3 96 +18 +18 1016.5 950.3 2
04 19.08 С 1
{8}
н/о н/о +17.1 +15.0 87 +18 +18 1018.5 952.2 6
05 19.08 В 1
{4}
н/о н/о +15.9 +14.9 94 +17 +17 1017.6 951.1 1
06 19.08 Ю 3
{8}
н/о н/о +15.9 +14.9 94 +16 +16 1017.8 951.3 +15.6
07 19.08 Ю 2
{4}
н/о н/о +16.6 +15.3 92 +17 +17 1017.8 951.4
08 19.08 Ю 1
{3}
н/о н/о +17.2 +15.4 89 +18 +18 1018.0 951.7 0.2
09 19.08 Ю 2
{5}
н/о н/о +17.8 +15.9 89 +18 +18 1017.2 951.1 0.1
10 19.08 СВ 2
{4}
н/о н/о +19.9 +15.4 75 +23 +23 комфорт 1016.4 950.9
11 19.08 СЗ 3
{7}
н/о н/о +21.1 +15.0 68 +24 +24 комфорт 1016.3 951.0
12 19.08 С 2
{7}
н/о н/о +20.6 +15.2 71 +24 +24 комфорт 1017.0 951.6
13 19.08 СВ 1
{4}
н/о н/о +21.9 +16.1 70 +26 +26 душно 1016.5 951.4
14 19.08 С 2
{5}
н/о н/о +22.2 +15.9 67 +26 +26 душно 1016.3 951.3
15 19.08 З 2
{6}
н/о н/о +22.8 +16.9 69 +28 +28 душно 1016.4 951.5 0.1
16 19.08 З 4
{8}
н/о н/о +22.3 +15.7 66 +26 +26 жарко 1016.2 951.2
17 19.08 С 2
{8}
н/о н/о +18.7 +16.1 85 +20 +20 1017.9 952.0 0.5
18 19.08 В 2
{8}
н/о н/о +18.5 +16.5 88 +20 +20 1018.9 952.9 +22.8 0.8
19 19.08 С 2
{4}
н/о н/о +17.7 +16.6 93 +18 +18 1019.5 953.3 2
20 19.08 ЮЗ 2
{4}
н/о н/о +17.5 +16.7 95 +18 +18 1020.2 953.9 2
21 19.08 СВ 1
{4}
н/о н/о +17.5 +16.7 95 +19 +19 1020.2 953.9 0.7
22 19.08 СЗ 1
{5}
н/о н/о +17.3 +16.3 94 +18 +18 1019.9 953.5 0.2
23 19.08 З 3
{10}
н/о н/о +17.0 +15.6 91 +17 +17 1020.5 954.0
00 20.08 СЗ 4
{10}
н/о н/о +16.6 +15.1 91 +16 +16 1020.2 953.7
01 20.08 СВ 2
{5}
н/о н/о +16.5 +15.3 93 +17 +17 1019.8 953.3 0.1
02 20.08 ЮЗ 3
{9}
н/о н/о +16.2 +15.2 94 +16 +16 1021.2 954.5 4
03 20.08 СВ 2
{9}
н/о н/о +15.8 +15.1 96 +16 +16 1019.8 953.1 1
04 20.08 С 1
{3}
н/о н/о +16.0 +15.2 95 +17 +17 1019.7 953.1 0.1
05 20.08 ЮВ 1
{3}
н/о н/о +15.9 +15.2 96 +17 +17 1019.1 952.5 0.1
06 20.08 З 5
{9}
н/о н/о +15.8 +14.7 93 +15 +15 1019.8 953.1 +15.7
07 20.08 СЗ 2
{9}
н/о н/о +16.0 +14.6 91 +16 +16 1020.6 953.9 0.3
08 20.08 З 3
{6}
н/о н/о +16.0 +14.7 92 +15 +15 1020.6 953.9 0.7
09 20.08 СЗ 4
{9}
н/о н/о +15.8 +14.6 93 +15 +15 1021.5 954.7 0.3
10 20.08 С 3
{8}
н/о н/о +16.3 +14.6 90 +16 +16 1021.7 955.0 2
11 20.08 СЗ 3
{6}
н/о н/о +16.4 +15.2 93 +16 +16 1021.0 954.4 2
12 20.08 З 6
{11}
н/о н/о +16.4 +14.7 90 +15 +15 1021.4 954.7
13 20.08 З 4
{14}
н/о н/о +15.3 +12.7 84 +14 +14 1023.2 956.2 4
14 20.08 З 1
{7}
н/о н/о +14.8 +13.6 93 +15 +15 1023.0 955.9 2
15 20.08 СЗ 3
{14}
н/о н/о +14.8 +13.1 90 +14 +14 1023.7 956.5 1
16 20.08 З 6
{12}
н/о н/о +14.1 +12.4 89 +12 +12 1024.4 957.0 1
17 20.08 З 6
{12}
н/о н/о +14.1 +12.4 89 +12 +12 1025.8 958.3 2
18 20.08 З 5
{14}
н/о н/о +13.5 +11.7 89 +12 +12 1026.6 958.9 +16.7 3
19 20.08 З 4
{9}
н/о н/о +13.4 +11.4 88 +12 +12 1027.3 959.5 2
20 20.08 З 5
{12}
н/о н/о +13.0 +10.6 85 +11 +11 1027.6 959.7 0.5
21 20.08 В 1
{12}
н/о н/о +12.6 +11.1 91 +13 +13 1027.5 959.5 0.5
22 20.08 В 1
{2}
н/о н/о +12.5 +11.7 95 +12 +12 1027.6 959.6
23 20.08 З 1
{3}
н/о н/о +12.6 +11.9 95 +13 +13 1027.8 959.8
00 21.08 ЮВ 1
{12}
н/о н/о +12.3 +11.7 96 +12 +12 1027.3 959.3
01 21.08 ЮВ 1
{2}
н/о н/о +11.2 +10.7 97 +11 +11 1027.5 959.2
02 21.08 СВ 1
{2}
н/о н/о +10.9 +10.5 97 +11 +11 1027.7 959.3
03 21.08 ЮЗ 1
{2}
н/о н/о +10.5 +10.2 98 +10 +10 1027.6 959.1
04 21.08 В 1
{2}
н/о н/о +10.5 +10.3 99 +11 +11 1027.4 958.9
05 21.08 Ю 1
{2}
н/о н/о +11.1 +10.9 99 +11 +11 1027.4 959.1
06 21.08 В 1
{2}
н/о н/о +11.7 +11.2 97 +12 +12 1027.4 959.2 +10.4
07 21.08 В 1
{2}
н/о н/о +12.9 +11.9 94 +14 +14 1026.8 959.0
08 21.08 В 2
{3}
н/о н/о +14.4 +11.7 84 +14 +14 1026.0 958.6
09 21.08 В 3
{5}
н/о н/о +14.9 +10.9 77 +14 +14 1025.6 958.3
10 21.08 В 3
{5}
н/о н/о +16.8 +11.3 70 +17 +17 1024.6 957.8
11 21.08 СВ 4
{5}
н/о н/о +17.4 +10.5 64 +17 +17 1024.3 957.7
12 21.08 СВ 2
{6}
н/о н/о +18.4 +10.8 61 +19 +19 1024.0 957.6
13 21.08 СВ 4
{6}
н/о н/о +19.0 +11.2 61 +20 +20 1023.4 957.2
14 21.08 СВ 5
{8}
н/о н/о +19.3 +11.8 62 +20 +20 1023.1 957.0
15 21.08 СВ 5
{8}
н/о н/о +18.2 +12.0 67 +18 +18 1023.2 956.8
16 21.08 СВ 5
{8}
н/о н/о +18.0 +12.3 69 +18 +18 1023.4 957.0
17 21.08 В 3
{7}
н/о н/о +17.8 +12.4 71 +18 +18 1023.2 956.7
18 21.08 ЮВ 1
{8}
н/о н/о +17.5 +12.4 72 +19 +19 1023.3 956.8 +19.6
19 21.08 Ю 2
{3}
н/о н/о +16.9 +13.3 79 +17 +17 1023.4 956.7
20 21.08 ЮЗ 1
{3}
н/о н/о +16.2 +13.7 85 +17 +17 1023.7 956.8
21 21.08 ЮВ 1
{3}
н/о н/о +15.9 +13.6 86 +17 +17 1023.7 956.8
22 21.08 ЮЗ 2
{2}
н/о н/о +15.4 +13.6 89 +15 +15 1023.7 956.7
23 21.08 ЮЗ 2
{2}
н/о н/о +14.8 +13.2 90 +15 +15 1023.6 956.4
00 22.08 Ю 1
{3}
н/о н/о +14.0 +12.7 92 +14 +14 1023.8 956.4
01 22.08 ЮЗ 1
{2}
н/о н/о +13.4 +12.3 93 +13 +13 1023.8 956.3
02 22.08 ЮЗ 1
{2}
н/о н/о +13.5 +12.4 93 +14 +14 1023.6 956.1
03 22.08 ЮЗ 2
{2}
н/о н/о +13.7 +12.5 92 +13 +13 1023.3 955.9
05 22.08 ЮЗ 2
{2}
н/о н/о +12.9 +11.8 93 +12 +12 1023.7 956.1
06 22.08 Ю 1
{2}
н/о н/о +13.1 +11.8 92 +13 +13 1023.9 956.3 +12.8
07 22.08 В 1
{2}
н/о н/о +14.2 +12.5 90 +15 +15 1023.6 956.3
08 22.08 ЮВ 2
{3}
н/о н/о +16.0 +13.4 85 +16 +16 1023.4 956.5
09 22.08 С 2
{3}
н/о н/о +17.5 +13.1 75 +18 +18 1023.1 956.6
10 22.08 З 2
{4}
н/о н/о +18.2 +13.2 73 +19 +19 1022.9 956.6
11 22.08 З 3
{7}
н/о н/о +18.8 +13.3 70 +20 +20 1022.8 956.6

 

Местоположение метеостанции Интерлакен (Швейцария): широта 46.67 долгота 7.87 высота над уровнем моря 579 м.

В архиве по умолчанию представлена погода в Интерлакене за последнюю неделю. Архивные данные за месяц целиком и за предыдущие месяцы, начиная с января 2011 года, Вы можете получить, выбрав интересующий диапазон дат из раскрывающегося списка и нажав кнопку "Ввод!".


*Определитесь, кто Вы:
робот инопланетянин человек

Внимание! Время в таблицах - всемирное. Для получения местного времени необходимо прибавить поправку, которая равна 1 ч.

Смотрите также архив погоды в соседних городах и на ближайших метеорологических станциях:

Погода на Юнгфрауйохе (Швейцария) (16 км)
Погода в Бриенце (Швейцария) (18 км)
Погода во Фрутигене (Швейцария) (18 км)
Погода в Виммисе (Швейцария) (20 км)
Погода в Майрингене (Швейцария) (24 км)
Погода в Блаттене (Швейцария) (28 км)
Погода в Гисвиле (Швейцария) (28 км)
Погода в Лангнау-им-Эмментале (Швейцария) (29 км)
Погода в Адельбодене (Швейцария) (30 км)
Погода на Эггисхорне (Швейцария) (31 км)

Пояснения к столбцам:

Ветер - указаны скорость ветра в м/с - средняя за 10 мин, порывы в срок и между сроками (в фигурных скобках) и направление, откуда дует ветер: С - северный, СВ - северо-восточный, В - восточный, ЮВ - юго-восточный, Ю - южный, ЮЗ - юго-западный, З - западный, СЗ - северо-западный.
Видимость - горизонтальная дальность видимости в метрах или километрах. При видимости от 1 до 10 км при отсутствии осадков обычно наблюдается дымка, при ухудшении видимости до 1 км и менее - туман. В сухую погоду видимость может ухудшаться дымом, пылью или мглою.
Явления - указаны атмосферные явления, наблюдавшиеся в срок или в последний час перед сроком; фигурными скобками обозначены явления, наблюдавшиеся между сроками (за 1-3 часа до срока); квадратными скобками обозначены град или гололедные отложения с указанием их диаметра в мм.
Облачность - указаны через наклонную черту общая и нижняя облачность в баллах и высота нижней границы облаков в метрах; квадратными скобками обозначены формы облаков: Ci - перистые, Cs - перисто-слоистые, Cc - перисто-кучевые, Ac - высококучевые, As - высокослоистые, Sc - слоисто-кучевые, Ns - слоисто-дождевые, Cu - кучевые, Cb - кучево-дождевые. Подробнее классификацию облаков см. в Атласе облаков (PDF).
T - Температура воздуха - температура, измеренная на высоте 2 м над землей.
Td - Температура точки росы - температура, при понижении до которой содержащийся в воздухе водяной пар достигнет насыщения.
f - Относительная влажность воздуха - влажноcть воздуха, измеренная на высоте 2 м над землей.
Te - Эффективная температура - температура, которую ощущает одетый по сезону человек в тени. Характеристика душности погоды. При расчете учитывается влияние влажности воздуха и скорости ветра на теплоощущения человека.
Tes - Эффективная температура на солнце - температура, которую ощущает человек, с поправкой на солнечный нагрев. Характеристика знойности погоды. Зависит от высоты солнца над горизонтом, облачности и скорости ветра. Ночью, в пасмурную погоду, а также при ветре 12 м/с и более поправка равна нулю.
P - Атмосферное давление - приведенное к уровню моря атмосферное давление.
Po - Атмосферное давление - измеренное на уровне метеостанции атмосферное давление.
Tmin - Минимальная температура - минимум температуры воздуха на высоте 2 м над землей.
Tmax - Максимальная температура - максимум температуры воздуха на высоте 2 м над землей.
R - Количество осадков - Количество выпавших осадков за период времени, мм. При наведении курсора мыши на число - период времени, за который выпало указанное количество осадков.
R24 - Количество осадков - Количество выпавших осадков за 24 часа, мм.
S - Снежный покров - Высота снежного покрова, см. При наведении курсора мыши на число - состояние снежного покрова и степень покрытия местности в баллах.